Regional Weather Roundup
Issued by NWS

Home | Current Version | Previous Version | Text Only | Print | Product List | Glossary On
Versions: 1 2 3 4 5 6 7 8 9 10 11 12 13 14 15 16 17 18 19 20 21 22 23 24 25 26 27 28 29 30 31 32 33 34 35 36 37 38 39 40 41 42 43 44 45 46 47 48 49 50
000
ASUS43 KLMK 212110
RWRKY
KENTUCKY REGIONAL WEATHER ROUNDUP
NATIONAL WEATHER SERVICE LOUISVILLE KY
400 PM EST SUN JAN 21 2018

NOTE "FAIR" INDICATES FEW OR NO CLOUDS BELOW 12,000 FEET
WITH NO SIGNIFICANT WEATHER AND/OR OBSTRUCTIONS TO VISIBILITY.

KYZ001>023-026-027-061>063-070>075-212200-
WESTERN AND SOUTH CENTRAL KENTUCKY

CITY           SKY/WX    TMP DP  RH WIND       PRES   REMARKS
PADUCAH        CLOUDY    60  52  74 S9G16     29.97F
HENDERSON      CLOUDY    53  50  89 S12       30.00
OWENSBORO      CLOUDY    51  48  89 S9        30.02F
HOPKINSVILLE   FAIR      65  52  62 S10       30.02F
BOWLING GREEN  PTSUNNY   64  51  62 S13       30.06F
GLASGOW        CLOUDY    61  51  70 S8        30.08S
$$

KYZ024-025-028>034-038-045-046-053-212200-
NORTH CENTRAL KENTUCKY

CITY           SKY/WX    TMP DP  RH WIND       PRES   REMARKS
LOUISVILLE/SDF CLOUDY    57  51  80 S6        30.05S
LOUISVILLE/LOU CLOUDY    57  52  83 S7        30.06S
FORT KNOX      CLOUDY    57  52  82 S9        30.07R
$$

KYZ035>037-039>044-047>052-055>060-089>105-212200-
NORTHEAST KENTUCKY

CITY           SKY/WX    TMP DP  RH WIND       PRES   REMARKS
LEXINGTON      CLOUDY    59  50  72 S6        30.08S
COVINGTON      CLOUDY    55  50  83 S12       30.03F
FRANKFORT      CLOUDY    57  49  74 S6        30.05F
$$

KYZ054-064>069-076>088-106>120-212200-
SOUTHEAST KENTUCKY

CITY           SKY/WX    TMP DP  RH WIND       PRES   REMARKS
JACKSON        CLOUDY    63  46  54 VRB5      30.11F
LONDON         CLOUDY    62  43  49 S5        30.11F
SOMERSET       CLOUDY    61  45  55 CALM      30.11F
MIDDLESBORO    PTSUNNY   58  41  53 S6        30.16F
MONTICELLO     CLOUDY    64  49  57 W12       30.11F
$$




USA.gov is the U.S. government's official web portal to all federal, state and local government web resources and services.